Location: Laterina
(43.5167°N, 11.7167°E)
Time: 14:05:39
(UTC+00:00)

Cosmos 2026 Rocket - Pass Details

Date: 24 January 2021
Orbit: 940 x 1000 km, 82.9° (Epoch: 28 February)

Event Time Altitude Azimuth Distance (km) Brightness Sun altitude
Rises 19:21:59 0° 227° (SW) 3,612 7.5 -33.9°
Reaches altitude 10° 19:25:04 10° 242° (WSW) 2,680 6.9 -34.5°
Maximum altitude 19:29:43 22° 292° (WNW) 1,960 6.1 -35.3°
Drops below altitude 10° 19:34:27 10° 342° (NNW) 2,724 6.6 -36.2°
Sets 19:37:38 0° 357° (N) 3,687 7.1 -36.7°
